sat.trackr.live / text

‹ back to catalog

STARLINK-3342

NORAD 50816 · 2022-001P

PAYLOAD ACTIVE UNKNOWN

§ Identity

Operator
Country
US
Launch date
2022-01-06
Launch site
AFETR
Launch vehicle
Mass (kg)
RCS (m²)

Purposes: comms

External: N2YO · Heavens-Above · Gunter

§ Orbital elements

Epoch: 2026-05-24T14:30:22.858272Z

Period
94.96 min
Inclination
53.2125°
Eccentricity
0.0003041
Mean motion
15.16453561 rev/d
Perigee alt
514.5 km
Apogee alt
518.7 km
Semi-major
6,894.7 km
B*
8.1607e-4
RAAN
183.4780°
Arg perigee
40.2342°
Mean anomaly
319.8878°
Rev number
24,193

§ Raw data

STARLINK-33421 50816U 22001P   26144.60443123  .00015792  00000+0  81607-3 0  99932 50816  53.2125 183.4780 0003041  40.2342 319.8878 15.16453561241934

JSON: /api/v1/satellites/50816 · /tle

For live sub-satellite position, see the globe view (requires WebGL).

§ Visibility from observer

Set your observer location to see the next 7 days of passes ≥ 10°. The values pass through the URL so the page stays shareable.

No JS? Fill the form by hand. The geolocation button needs JavaScript.